User: anonymous   Login
Location: Unspecified
(0.0000°N, 0.0000°E)
Time: 06:09:05
(UTC+00:00)
Language:

RESURS DK-1 - Orbit

View from above orbital plane
View from above orbital plane
View from above satellite
View from above satellite

Ground track
Ground track

The orbit data is extracted from the following two-line orbital elements,

1 29228U 06021A   18168.72939692  .00000042  00000-0  10541-4 0  9994
2 29228  69.9357 247.9280 0003662 182.8951 177.2189 15.02329029662997
Epoch (UTC): 17 June 2018 17:30:19
Eccentricity: 0.0003662
inclination: 69.9357°
perigee height: 557 km
apogee height: 562 km
right ascension of ascending node: 247.9280°
argument of perigee: 182.8951°
revolutions per day: 15.02329029
mean anomaly at epoch: 177.2189°
orbit number at epoch: 66299

The dashed part of the orbit path shows where the satellite is in the earth's shadow,  

DLR